Location: Internatsional�noye
(51.1248°N, 71.5977°E)
Time: 09:42:34
(UTC+00:00)

Daily predictions for brighter satellites

Satellite Brightness Start Highest point End
(mag) Time Altitude Azimuth Time Altitude Azimuth Time Altitude Azimuth
Cosmos 2322 Rocket 2.9 12:00:54 10° NNW 12:06:03 33° NE 12:11:10 10° ESE
H-2A R/B 2.6 12:02:53 10° SE 12:07:25 34° ENE 12:11:53 10° N
Cosmos 540 Rocket 3.4 12:02:51 10° SSW 12:07:57 81° ESE 12:13:06 10° NNE
COSMOS 2428 4.4 12:05:12 10° N 12:08:23 15° NNE 12:11:03 11° NE
Cosmos 1980 Rocket 2.5 12:03:23 10° NNW 12:09:04 75° WSW 12:14:40 10° SSE
Cosmos 1939 Rocket 2.9 12:06:03 10° SSE 12:10:04 61° ENE 12:14:04 10° N
Cosmos 1782 2.9 12:07:06 10° S 12:11:01 58° E 12:14:56 10° NNE
USA 306 2.9 12:07:19 10° WNW 12:11:35 73° NNE 12:15:49 10° ESE
CORIOLIS 4.2 12:08:36 10° SSE 12:13:55 61° ENE 12:19:18 10° N
Meteor PRIRODA 3.8 12:11:35 10° S 12:15:12 74° WSW 12:18:50 10° NNW
Meteor 2-14 Rocket 4.4 12:13:04 10° N 12:19:13 87° E 12:25:17 10° S
CZ-2C R/B 3.2 12:14:43 10° S 12:19:30 69° WSW 12:24:16 10° NNW
Cosmos 44 Rocket 3.3 12:15:01 10° NW 12:19:59 87° NE 12:24:47 10° SE
ATLAS CENTAUR R/B 2.8 12:13:31 10° SW 12:23:07 85° SSE 12:26:19 17° ENE
Meteor 1-26 Rocket 4.4 12:17:49 10° S 12:23:50 76° E 12:29:53 10° NNE
Cosmos 1544 4.1 12:21:00 10° NNE 12:24:00 24° ENE 12:27:00 10° SE
Cosmos 1151 Rocket 3.3 12:20:05 10° SSE 12:24:13 45° E 12:28:24 10° NNE
NOAA 6 4.0 12:19:44 10° SSE 12:24:51 79° ENE 12:30:00 10° NNW
Cosmos 1633 Rocket 3.1 12:21:11 10° N 12:25:32 56° ENE 12:29:51 10° SSE
Cosmos 1536 4.2 12:22:54 10° NNE 12:25:45 18° ENE 12:27:37 14° E
CZ-4C R/B 4.2 12:23:45 10° N 12:27:23 44° WNW 12:30:48 10° SW
COSMO-SKYMED 1 3.9 12:25:46 17° ENE 12:27:25 20° E 12:30:39 10° SE
Cosmos 2237 Rocket 4.1 12:25:39 10° N 12:27:26 11° NNE 12:29:10 10° NNE
SL-16 R/B 2.3 12:21:55 10° NNW 12:27:30 53° NE 12:33:02 10° SE
Meteor 1-11 Rocket 4.3 12:22:36 10° N 12:27:46 35° ENE 12:33:01 10° SE
Cosmos 2279 Rocket 4.1 12:22:36 10° SSE 12:28:35 53° E 12:34:35 10° NNE
ARGOS 3.7 12:24:14 10° SE 12:29:05 35° ENE 12:33:55 10° N
Cosmos 2266 Rocket 4.4 12:23:40 10° N 12:29:41 41° ENE 12:35:42 10° SE
Lacrosse 5 rocket 1.8 12:26:22 10° WNW 12:30:12 58° SW 12:34:14 10° SE
Cosmos 2082 Rocket 2.2 12:26:08 10° SSW 12:31:49 82° ESE 12:37:21 11° NNE
USA 307 2.8 12:28:15 10° WNW 12:32:32 81° NNE 12:36:06 14° ESE
Meteor 1-5 Rocket 4.3 12:28:58 10° N 12:34:59 77° ENE 12:40:52 10° SSE
YAOGAN 1 4.0 12:37:07 18° NE 12:37:07 18° NE 12:39:23 10° NNE
USA 267 3.6 12:31:16 16° ENE 12:36:25 51° SE 12:42:44 10° SSW
CZ-4C R/B 3.5 12:30:55 10° NW 12:37:58 64° SW 12:46:14 10° SSE
Cosmos 371 Rocket 4.4 12:34:15 10° N 12:38:11 24° NE 12:39:41 21° ENE
Cosmos 1812 2.6 12:34:27 10° S 12:38:16 69° E 12:42:07 10° NNE
Cosmos 1833 Rocket 3.5 12:38:06 10° SW 12:43:31 47° NW 12:48:58 10° NNE
Cosmos 2278 4.4 12:39:16 10° NW 12:44:51 58° WSW 12:50:24 10° S
PSLV R/B 3.5 12:41:13 10° SSE 12:44:55 76° ENE 12:48:44 10° NNW
Cosmos 1814 Rocket 3.9 12:40:32 10° SSW 12:45:44 81° ESE 12:50:26 13° NNE
CZ-2C R/B 3.1 12:43:27 14° NE 12:47:23 35° E 12:52:05 10° SSE
APEX 3.9 12:44:56 10° S 12:47:58 26° ESE 12:48:10 26° ESE
Cosmos 2333 Rocket 3.2 12:43:48 10° NNW 12:48:43 27° NE 12:50:36 23° ENE
SL-16 R/B 4.3 12:49:39 10° N 12:49:57 10° N 12:50:16 10° N
CZ-4B DEB 4.3 12:46:17 10° SSE 12:51:47 83° WSW 12:57:19 10° NNW
Cosmos 1634 Rocket 4.3 12:45:48 10° SSW 12:52:07 74° W 12:58:29 10° N
Cosmos 2219 Rocket 3.3 12:48:33 10° NNW 12:53:10 24° NE 12:54:16 23° NE
Cosmos 1933 Rocket 3.8 12:49:13 10° N 12:53:22 42° ENE 12:57:29 10° SE
COSMOS 2455 3.1 12:48:34 10° SW 12:54:34 68° NW 12:59:31 16° NNE
Cosmos 1570 Rocket 3.9 12:49:50 10° SSW 12:55:04 83° ESE 12:59:30 15° NNE
USA 308 2.9 12:51:00 10° WNW 12:55:16 84° SSW 12:57:58 22° ESE
Cosmos 1666 Rocket 4.0 12:51:26 10° NNW 12:55:50 63° W 13:00:09 10° S
ATLAS CENTAUR R/B 3.6 12:53:15 10° NW 12:56:00 15° N 12:57:30 14° NNE
Cosmos 1328 Rocket 3.5 12:52:23 10° S 12:56:48 68° E 13:00:58 11° NNE
Cosmos 1900 4.2 12:52:57 10° SSW 12:57:48 76° SE 13:00:38 25° NE
Cosmos 1470 Rocket 3.5 12:55:04 10° N 12:59:33 74° ENE 13:04:02 10° SSE
Cosmos 2298 Rocket 4.0 12:55:16 10° NNW 13:00:38 87° WSW 13:05:59 10° SSE
SL-08 RB Rocket 4.0 12:58:54 10° SE 13:03:13 41° ENE 13:07:32 10° N
SeaSat 1 4.3 13:00:18 10° NNE 13:04:12 24° NW 13:08:05 10° W
MOS 1-B Rocket 4.1 13:00:15 10° NNE 13:06:17 67° ESE 13:13:11 10° S
CZ-4 R/B 3.7 13:10:46 12° N 13:10:46 12° N 13:11:05 10° N
NOSS 3-4 (A) 4.1 13:01:23 10° NW 13:07:40 43° NNE 13:10:59 28° E
COSMOS 2406 4.3 13:02:17 10° WSW 13:07:43 42° NW 13:12:45 12° NNE
NOSS 3-4 (C) 4.1 13:01:29 10° NW 13:07:45 43° NNE 13:11:03 28° E
ATLAS 2AS CENTAUR R/B 3.7 13:03:29 10° NW 13:10:15 34° NNE 13:13:06 26° NE
Okean O Rocket 1.5 13:06:25 10° SSE 13:10:49 64° ENE 13:15:15 10° N
USA 234 3.5 13:05:15 10° SE 13:11:47 72° SW 13:18:21 10° WNW
SKYMED 2 3.6 13:14:22 36° NE 13:15:50 55° E 13:20:06 10° S
CZ-4B R/B 3.1 13:11:07 10° SSE 13:16:30 89° E 13:21:51 10° NNW
USA 305 3.3 13:14:54 10° WNW 13:19:06 60° SSW 13:21:06 29° SE
deb Chang Zheng 4 3.4 13:15:12 10° SSE 13:19:31 87° ENE 13:23:52 10° NNW
Cosmos 1356 Rocket 3.3 13:17:45 10° NNW 13:22:00 87° E 13:26:16 10° SSE
X-37B 2.7 13:22:19 10° SSW 13:23:43 16° S 13:23:43 16° S
ERBS 3.4 13:22:05 10° NW 13:24:18 32° NNW 13:24:18 32° NNW
Cosmos 2360 Rocket 2.1 13:21:35 10° NNW 13:27:15 67° ENE 13:30:33 25° SE
Cosmos 1655 Rocket 4.1 13:24:11 10° NNW 13:30:36 81° W 13:36:57 10° S
Meteor 1-27 Rocket 3.6 13:26:17 10° S 13:31:40 58° E 13:33:51 35° NE
Meteor 2-6 Rocket 4.4 13:26:35 10° SSW 13:32:14 70° WNW 13:37:47 10° N
Cosmos 2237 4.2 13:27:43 10° NNW 13:33:28 88° WSW 13:39:10 10° SSE
Cosmos 2208 Rocket 4.5 13:30:14 10° SW 13:35:36 62° WNW 13:39:15 21° NNE
Cosmos 1125 Rocket 4.4 13:34:22 10° NNW 13:39:27 51° WSW 13:44:32 10° S
Cosmos 921 Rocket 3.4 13:39:06 10° SW 13:43:16 58° WNW 13:44:38 39° N
Cosmos 1515 Rocket 3.7 13:40:31 10° SSW 13:44:57 73° W 13:46:36 38° N
Cosmos 1867 3.5 13:41:10 10° SSW 13:46:32 60° SE 13:46:50 59° ESE
H-2A R/B 3.3 13:42:02 10° SSW 13:46:49 40° W 13:51:31 10° NNW
NOAA 15 4.4 13:41:36 10° SSE 13:46:52 76° ENE 13:52:09 10° NNW
Meteor 2-15 Rocket 4.4 13:42:35 10° SSW 13:48:44 84° W 13:54:52 10° N
Cosmos 2322 Rocket 2.7 13:44:50 10° NW 13:50:27 59° WSW 13:56:03 10° S
USA 32 3.9 13:45:31 10° S 13:50:44 88° E 13:53:35 28° N
USA 306 3.9 13:47:19 10° WNW 13:51:18 40° SW 13:52:07 36° S
Aureole 3 Rocket 3.6 13:46:55 10° S 13:51:47 83° E 13:58:49 10° NNE
COSMOS 2428 3.4 13:48:50 10° NNW 13:53:05 37° NNE 13:53:05 37° NNE
GEOS 3 Rocket 3.6 13:55:19 63° NE 13:55:19 63° NE 14:00:24 10° NW
Cosmos 1536 3.6 13:58:32 10° NNW 14:02:29 51° W 14:06:22 10° S
COSMO-SKYMED 1 3.2 14:02:59 44° NNW 14:03:54 53° WNW 14:08:07 10° SW
Spot 2 4.5 14:02:27 32° S 14:04:55 81° WSW 14:10:00 10° NNW
Cosmos 2322 4.0 14:01:44 10° NNW 14:06:18 52° N 14:06:18 52° N
Lacrosse 5 rocket 4.4 14:07:07 10° WSW 14:08:39 12° SW 14:10:12 10° SSW
ARGOS 4.2 14:04:06 10° S 14:09:16 44° W 14:14:26 10° NNW
SL-16 R/B 3.8 14:06:24 10° NW 14:11:24 33° WSW 14:16:22 10° SSW
YAOGAN 1 4.2 14:14:16 27° NNW 14:14:16 27° NNW 14:16:22 10° NNW
USA 307 4.3 14:08:21 10° WNW 14:12:10 33° SW 14:12:10 33° SW
Cosmos 2237 Rocket 3.9 14:08:48 10° NNW 14:10:59 20° N 14:10:59 20° N
Cosmos 2082 Rocket 4.0 14:11:54 10° W 14:16:35 26° NW 14:19:13 19° N
SL-08 ROCKET BODY 4.3 14:10:57 10° N 14:17:01 81° NE 14:17:01 81° NE
Cosmos 371 Rocket 3.8 14:14:14 10° NNW 14:18:24 57° WNW 14:18:24 57° WNW
USA 267 3.2 14:18:36 62° NE 14:19:40 75° NNW 14:26:11 10° WSW
BREEZE-M DEB (TANK) 4.1 14:03:52 10° SW 14:24:20 62° SSE 14:25:03 59° SE
CZ-2C R/B 3.7 14:24:58 22° N 14:27:45 40° WNW 14:32:32 10° SW
Cosmos 2333 Rocket 2.6 14:27:50 10° NNW 14:32:39 61° NW 14:32:39 61° NW
ATLAS CENTAUR R/B 4.2 14:32:45 10° NNW 14:33:37 14° NNW 14:33:37 14° NNW
SL-16 R/B 4.4 14:32:30 10° NNW 14:33:31 13° N 14:33:31 13° N
Cosmos 2219 Rocket 3.0 14:32:10 10° NNW 14:36:01 45° NNW 14:36:01 45° NNW
COSMOS 2455 4.5 14:36:45 10° W 14:41:37 25° NNW 14:42:40 23° N
Okean O Rocket 4.3 14:44:34 10° SW 14:47:36 18° W 14:50:38 10° NW
ATLAS CENTAUR R/B 4.5 14:49:48 10° WNW 14:51:54 19° WNW 14:51:54 19° WNW
NOSS 3-4 (A) 4.0 14:52:15 10° NW 14:58:27 70° W 14:58:27 70° W
NOSS 3-4 (C) 4.0 14:52:21 10° NW 14:58:30 69° W 14:58:30 69° W
ATLAS 2AS CENTAUR R/B 3.4 14:55:09 10° NW 15:00:33 48° NNW 15:00:33 48° NNW
Cosmos 2360 Rocket 4.1 15:06:17 10° NW 15:10:47 25° WSW 15:12:26 22° SW
CENTAUR R/B 3.7 22:50:58 39° NE 22:50:58 39° NE 22:55:33 10° NE
ATLAS 5 CENTAUR R/B 4.1 23:18:36 16° E 23:18:36 16° E 23:20:33 10° ENE
Cosmos 2279 Rocket 4.5 23:18:05 56° ENE 23:18:06 56° ENE 23:24:11 10° SSE
NOSS 3-2 (A) 4.5 23:21:28 38° NNE 23:21:28 38° NNE 23:26:06 10° NE
NOSS 3-2 (C) 4.0 23:33:03 49° NNE 23:33:03 49° NNE 23:38:15 10° NE
Cosmos 2344 3.7 23:35:33 59° NNW 23:35:33 59° NNW 23:43:24 10° NE
Lacrosse 4 Rocket 4.0 23:38:55 16° NNE 23:38:55 16° NNE 23:41:35 10° ENE
SJ 16-02 3.4 23:39:15 11° SSE 23:42:38 26° E 23:46:17 10° NE
MOS 1-B Rocket 3.8 23:41:51 10° SSE 23:47:44 78° ENE 23:48:05 75° NNE
